EW7614 Weather Reports


Display with metric or nautical units.
time (UTC)temp
F
wind
direction
speed
MPH
gust
MPH
rain 1hr
in
rain 24hr
in
rain mn
in
humidity
%
barometer
mb
20260903190024 68 202 1.0 8.0 0.00 0.00 0.00 65 1018.2
20260903184618 68 200 0.0 4.0 0.00 0.00 0.00 67 1018.3
20260903183102 69 204 4.0 10.0 0.00 0.00 0.00 65 1017.9
20260903181524 69 184 1.0 10.0 0.00 0.00 0.00 65 1018.0
20260903180110 69 120 3.0 10.0 0.00 0.00 0.00 65 1017.8
20260903174510 70 239 5.0 8.0 0.00 0.00 0.00 64 1017.6
20260903173124 71 163 4.0 7.0 0.00 0.00 0.00 64 1017.4
20260903171621 71 196 0.0 5.0 0.00 0.00 0.00 61 1017.3
20260903170052 72 209 0.0 3.0 0.00 0.00 0.00 58 1017.4
20260903164502 72 98 0.0 1.0 0.00 0.00 0.00 59 1017.4
20260903163007 75 235 0.0 4.0 0.00 0.00 0.00 54 1017.2
20260903161539 74 224 0.0 2.0 0.00 0.00 0.00 56 1017.1
20260903160126 75 275 1.0 4.0 0.00 0.00 0.00 54 1017.1
20260903154508 75 219 1.0 3.0 0.00 0.00 0.00 55 1017.0
20260903153106 75 292 1.0 5.0 0.00 0.00 0.00 55 1017.1
20260903151534 75 289 2.0 7.0 0.00 0.00 0.00 57 1017.3
20260903150136 75 306 4.0 10.0 0.00 0.00 0.00 54 1017.1
20260903144545 76 292 4.0 9.0 0.00 0.00 0.00 54 1017.0
20260903143121 75 304 3.0 11.0 0.00 0.00 0.00 52 1016.9
20260903141535 74 300 2.0 9.0 0.00 0.00 0.00 58 1016.9
20260903140123 73 303 2.0 7.0 0.00 0.00 0.00 56 1016.8
20260903134536 75 318 2.0 7.0 0.00 0.00 0.00 54 1017.0
20260903133105 75 303 2.0 10.0 0.00 0.00 0.00 50 1017.1
20260903131524 77 110 1.0 5.0 0.00 0.00 0.00 46 1017.2
20260903130123 76 320 3.0 11.0 0.00 0.00 0.00 51 1017.2
20260903124529 76 266 1.0 9.0 0.00 0.00 0.00 51 1017.1
20260903123119 76 282 2.0 10.0 0.00 0.00 0.00 49 1017.1
20260903121604 77 320 4.0 9.0 0.00 0.00 0.00 50 1017.1
20260903120000 77 285 0.0 6.0 0.00 0.00 0.00 49 1017.0
20260903114631 76 249 5.0 9.0 0.00 0.00 0.00 50 1017.0
20260903113046 77 317 1.0 7.0 0.00 0.00 0.00 53 1017.2
20260903111617 76 232 1.0 2.0 0.00 0.00 0.00 62 1017.3
20260903104629 76 214 0.0 3.0 0.00 0.00 0.00 57 1017.5
20260903103027 76 209 0.0 5.0 0.00 0.00 0.00 59 1017.7
20260903101614 76 160 0.0 2.0 0.00 0.00 0.00 60 1018.0
20260903100051 75 153 0.0 1.0 0.00 0.00 0.00 63 1018.1
20260903094633 74 131 0.0 3.0 0.00 0.00 0.00 59 1018.1
20260903093048 73 159 0.0 2.0 0.00 0.00 0.00 66 1018.3
20260903091612 72 142 0.0 1.0 0.00 0.00 0.00 65 1018.5
20260903090006 70 171 0.0 2.0 0.00 0.00 0.00 68 1018.8
20260903084538 69 140 0.0 0.0 0.00 0.00 0.00 72 1019.0
20260903083121 68 210 0.0 0.0 0.00 0.00 0.00 71 1019.2
20260903081538 66 260 0.0 0.0 0.00 0.00 0.00 71 1019.5
20260903080120 65 216 0.0 0.0 0.00 0.00 0.00 72 1019.5
20260903074528 64 262 0.0 0.0 0.00 0.00 0.00 76 1019.6
20260903073115 64 263 0.0 0.0 0.00 0.00 0.00 77 1019.6
20260903071505 61 260 0.0 0.0 0.00 0.00 0.00 83 1019.9
20260903070039 58 235 0.0 0.0 0.00 0.00 0.00 90 1019.9
20260903063104 55 267 0.0 0.0 0.00 0.00 0.00 93 1019.9
20260903060056 54 211 0.0 0.0 0.00 0.00 0.00 95 1020.0
20260903054626 53 211 0.0 0.0 0.00 0.00 0.00 95 1020.0
20260903053046 52 214 0.0 0.0 0.00 0.00 0.00 95 1019.7
20260903051634 52 214 0.0 0.0 0.00 0.00 0.00 95 1019.8
20260903050038 53 214 0.0 0.0 0.00 0.00 0.00 94 1019.7
20260903044628 53 214 0.0 0.0 0.00 0.00 0.00 94 1019.5
20260903043112 53 214 0.0 0.0 0.00 0.00 0.00 94 1019.3
20260903041552 54 214 0.0 0.0 0.00 0.00 0.00 94 1019.3
20260903040012 54 214 0.0 0.0 0.00 0.00 0.00 93 1019.3
20260903034552 54 213 0.0 0.0 0.00 0.00 0.00 93 1019.3
20260903033129 54 252 0.0 0.0 0.00 0.00 0.00 94 1019.3
20260903031555 54 254 0.0 0.0 0.00 0.00 0.00 94 1019.2
20260903030130 53 253 0.0 0.0 0.00 0.00 0.00 93 1019.4
20260903024540 54 248 0.0 0.0 0.00 0.00 0.00 93 1019.3
20260903023138 54 248 0.0 0.0 0.00 0.00 0.00 93 1019.3
20260903021533 54 248 0.0 0.0 0.00 0.00 0.00 92 1019.3
20260903020013 54 248 0.0 0.0 0.00 0.00 0.00 92 1019.2
20260903014616 55 248 0.0 0.0 0.00 0.00 0.00 91 1019.3
20260903013042 56 248 0.0 0.0 0.00 0.00 0.00 91 1019.1
20260903011616 56 248 0.0 0.0 0.00 0.00 0.00 90 1019.2
20260903010032 57 248 0.0 0.0 0.00 0.00 0.00 89 1019.2
20260903004613 57 248 0.0 0.0 0.00 0.00 0.00 89 1019.2
20260903003107 58 248 0.0 0.0 0.00 0.00 0.00 89 1019.2
20260903001524 58 248 0.0 0.0 0.00 0.00 0.00 89 1019.1
20260903000113 58 248 0.0 0.0 0.00 0.00 0.00 89 1019.1
20260902234532 58 248 0.0 0.0 0.00 0.00 0.00 88 1019.1
20260902233127 58 248 0.0 0.0 0.00 0.00 0.00 88 1019.1
20260902231544 59 248 0.0 0.0 0.00 0.00 0.00 88 1019.2
20260902230120 58 248 0.0 0.0 0.00 0.00 0.00 87 1019.2
20260902224529 59 248 0.0 0.0 0.00 0.00 0.00 86 1019.1
20260902223120 59 248 0.0 0.0 0.00 0.00 0.00 85 1019.1
20260902221516 59 248 0.0 0.0 0.00 0.00 0.00 85 1019.0
20260902220113 60 248 0.0 0.0 0.00 0.00 0.00 84 1018.9
20260902214526 60 248 0.0 0.0 0.00 0.00 0.00 85 1018.9
20260902213121 61 257 0.0 1.0 0.00 0.00 0.00 84 1018.8
20260902211528 61 254 0.0 0.0 0.00 0.00 0.00 82 1018.7
20260902210113 62 259 0.0 1.0 0.00 0.00 0.00 81 1018.5
20260902204537 63 290 0.0 2.0 0.00 0.00 0.00 77 1018.5
20260902203118 66 248 4.0 9.0 0.00 0.00 0.00 67 1018.3
20260902201534 65 221 4.0 7.0 0.00 0.00 0.00 70 1018.4
20260902200124 65 242 0.0 9.0 0.00 0.00 0.00 72 1018.5
20260902194527 65 94 0.0 2.0 0.00 0.00 0.00 72 1018.4
20260902193118 67 220 3.0 11.0 0.00 0.00 0.00 67 1018.2
20260902191511 67 186 0.0 6.0 0.00 0.00 0.00 67 1018.2